Regional Weather Roundup
Issued by NWS

Home | Current Version | Previous Version | Text Only | Print | Product List | Glossary On
Versions: 1 2 3 4 5 6 7 8 9 10 11 12 13 14 15 16 17 18 19 20 21 22 23 24 25 26 27 28 29 30 31 32 33 34 35 36 37 38 39 40 41 42 43 44 45 46 47 48 49 50
000
ASUS43 KOAX 202102
RWRNE

WEATHER ROUNDUP FOR NEBRASKA
NATIONAL WEATHER SERVICE OMAHA NE
400 PM CDT FRI OCT 20 2017

NOTES: SATELLITE DATA IS BEING USED TO AUGMENT CLOUD COVER ABOVE
       12000 FEET.
       "FAIR" INDICATES FEW OR NO CLOUDS BELOW 12,000 FEET WITH NO
       SIGNIFICANT WEATHER AND/OR OBSTRUCTIONS TO VISIBILITY.


NEZ001>004-019>022-054>056-202200-
NEBRASKA PANHANDLE

CITY           SKY/WX    TMP DP  RH WIND       PRES   REMARKS
SCOTTSBLUFF    SUNNY     79  38  22 SE12      29.48F
ALLIANCE       SUNNY     76  40  27 S17       29.49F
CHADRON        SUNNY     83  32  16 SW20G28   29.41S
GORDON         FAIR      79  42  26 S10       29.45F
KIMBALL        SUNNY     78  30  17 SW22      29.56S
SIDNEY         SUNNY     77  38  24 SE8       29.54F
$$

NEZ057>060-069>072-079>082-202200-
SOUTHWEST NEBRASKA

CITY           SKY/WX    TMP DP  RH WIND       PRES   REMARKS
NORTH PLATTE   MOSUNNY   74  52  46 S12G22    29.54F
IMPERIAL       CLOUDY    77  47  34 S14       29.53F
LEXINGTON      MOSUNNY   76  52  42 S28G36    29.56F
MCCOOK         CLOUDY    82  50  32 S28G40    29.54F
OGALLALA       SUNNY     75  50  41 SE14      29.52F
$$

NEZ005>010-023>029-035>040-094-202200-
NORTH CENTRAL NEBRASKA

CITY           SKY/WX    TMP DP  RH WIND       PRES   REMARKS
VALENTINE      MOSUNNY   77  50  38 S29G38    29.48F
AINSWORTH      MOSUNNY   72  54  54 S26       29.54F
BROKEN BOW     SUNNY     74  54  49 S23G32    29.57F
O`NEILL        PTSUNNY   73  55  54 S21G31    29.56F
ORD            MOSUNNY   75  54  47 S29G43    29.57F
THEDFORD       SUNNY     73  52  46 S21G29    29.55F
$$

NEZ041-046>049-061>064-073>077-083>087-202200-
SOUTH CENTRAL NEBRASKA

CITY           SKY/WX    TMP DP  RH WIND       PRES   REMARKS
GRAND ISLAND   SUNNY     76  58  53 S32G44    29.62F
AURORA         SUNNY     75  55  49 S24G41    29.64S
HASTINGS       SUNNY     74  55  51 S26G37    29.64F
HEBRON         MOSUNNY   78  59  52 S24G35    29.71S
HOLDREGE       SUNNY     77  55  46 S30G39    29.60S
KEARNEY        CLOUDY    76  56  49 S36G41    29.60F
YORK           SUNNY     77  57  50 S24G35    29.66F
$$

NEZ011>018-030>034-042>045-202200-
NORTHEAST NEBRASKA

CITY           SKY/WX    TMP DP  RH WIND       PRES   REMARKS
NORFOLK        SUNNY     76  57  51 S30G41    29.61F
ALBION         MOSUNNY   77  56  48 S30G37    29.61F
BLAIR          MOSUNNY   77  58  52 S29G36    29.72F
COLUMBUS       SUNNY     77  58  51 S28G37    29.66F
FREMONT        CLOUDY    74  58  55 S20G28    29.71F
TEKAMAH        MOSUNNY   76  57  51 S20G30    29.71F
WAYNE          MOSUNNY   76  54  45 S26G36    29.64F
$$

NEZ050>053-065>068-078-088>093-202200-
SOUTHEAST NEBRASKA

CITY           SKY/WX    TMP DP  RH WIND       PRES   REMARKS
LINCOLN        PTSUNNY   76  58  53 S32G49    29.71F
OMAHA EPPLEY   MOSUNNY   78  58  49 S30G39    29.74F
BEATRICE       CLOUDY    76  60  58 S18G33    29.74S
FALLS CITY     MOSUNNY   76  58  53 S26G38    29.81F
NEBRASKA CITY  PTSUNNY   75  60  60 S22G30    29.78F
PLATTSMOUTH    PTSUNNY   76  59  54 S26G35    29.76F
$$

NEZ044-045-051>053-067-202200-
OMAHA AREA

CITY           SKY/WX    TMP DP  RH WIND       PRES   REMARKS
OMAHA EPPLEY   MOSUNNY   78  58  49 S30G39    29.74F
BLAIR          MOSUNNY   77  58  52 S29G36    29.72F
FREMONT        CLOUDY    74  58  55 S20G28    29.71F
MILLARD        PTSUNNY   78  60  53 S23G30    29.73F
OFFUTT AFB     MOSUNNY   76  58  53 SE20G36   29.74F
PLATTSMOUTH    PTSUNNY   76  59  54 S26G35    29.76F
WAHOO          FAIR      78  57  49 S24G35    29.70F
$$




USA.gov is the U.S. government's official web portal to all federal, state and local government web resources and services.